Время (UTC), дата Ветер
(°,м/с) 
Видим.   Явления Облачность Т
(°С)
Тd
(°С)
f(%) Тe
(°С)
Pmin
(гПа)
dP
(гПа)
Po
(мм)
O2
(г/м3)
Тmin Tmax R s Состояние
почвы
00 01.10.17 030 (СВ) 8000 м    1/0 верхняя 
[Ci fib]
+6.2 -0.3 63 +5  1024  -0.3  761  300           
03 01.10.17 020 (С) 8000 м    8/5 1300 м средняя 
[Sc|Ac trans]
+7.6 +1.9 67 +7  1023.8  761  298  +4.8         
06 01.10.17 030 (СВ) 10 км    8/4 1000 м средняя 
[Sc|Ac trans]
+10.2 +3.1 61 +10  1024.5  0.7  762  295           
09 01.10.17 050 (СВ) 10 км    9/5 1320 м средняя 
[Sc|Ac trans]
+12.1 +2.1 50 +12  1024  -0.5  761  293           
12 01.10.17 010 (С) 10 км    6/4 1500 м средняя 
[Sc|Ac trans]
+13.4 +0 40 +13  1023.4  -0.3  761  292           
15 01.10.17 030 (СВ) 10 км    9/5 1500 м средняя 
[Sc|Ac trans]
+11.2 +0.9 49 +10  1024.6  762  295    +14.3       
18 01.10.17 030 (СВ) 5{10}  8000 м    9/4 1500 м средняя 
[Sc|Ac trans]
+9.2 +1 56 +8  1025.9  1.1  763  297           
21 01.10.17 050 (СВ) 8000 м    3/0 средняя 
[Ac trans]
+5.5 +0.3 69 +3  1026.4  0.4  763  301           
00 02.10.17 030 (СВ) 8000 м    4/1 600 м средняя 
[Sc|Ac trans]
+4.5 +0.5 75 +2  1026.6  0.1  763  302           
03 02.10.17 040 (СВ) 8000 м    6/4 420 м средняя 
[St|Ac trans]
+3.6 +0.9 82 +1  1027.1  0.4  763  303  +3.6         
06 02.10.17 060 (СВ) 7-10{11}  10 км    9/5 360 м средняя 
[Sc|Ac trans]
+7.4 +3.1 74 +5  1027.6  0.7  764  299  +3.5         
09 02.10.17 060 (СВ) 6{10}  10 км    9/5 1000 м средняя 
[Sc|Ac trans]
+9.9 +2.8 61 +8  1027.6  764  297           
12 02.10.17 040 (СВ) 5{11}  10 км    9/5 1350 м средняя 
[Sc|Ac trans]
+11 +0.6 49 +10  1027  -0.5  763  296           
15 02.10.17 060 (СВ) 10 км    9/5 1500 м средняя 
[Sc|Ac trans]
+10.3 -0.1 48 +9  1027.4  0.4  764  297    +11.6       
18 02.10.17 050 (СВ) 8000 м    9/5 1500 м средняя 
[Sc|Ac trans]
+9.3 +0.7 55 +8  1028.1  0.6  764  298           
21 02.10.17 070 (В) 8000 м    9/5 1500 м средняя 
[Sc|Ac trans]
+8.7 +0.4 56 +7  1028.4  0.2  764  298           
00 03.10.17 070 (В) 8000 м    9/5 1500 м средняя 
[Sc|Ac trans]
+7.1 +0.5 63 +5  1028.5  764  300           
03 03.10.17 050 (СВ) 8000 м    9/5 1500 м средняя 
[Sc|Ac trans]
+5.9 -1.1 61 +4  1029.1  0.5  765  302  +5.9         
06 03.10.17 060 (СВ) 10 км    9/4 1500 м средняя 
[Sc|Ac trans]
+7.1 -0.2 60 +5  1030.1  0.9  766  301  +5.8         
09 03.10.17 080 (В) 10 км    8/3 1500 м средняя 
[Sc|Ac trans]
+10.7 -1.6 42 +10  1030  766  297           
12 03.10.17 110 (В) 10 км    4/0 средняя 
[Ac trans]
+12.2 -2.3 36 +12  1028.8  -1  765  295           
15 03.10.17 080 (В) 8000 м    ясно 
+9.1 -2 46 +9  1029.2  0.3  765  299    +12.7       
18 03.10.17 060 (СВ) 8000 м    ясно 
+5 -2.1 60 +4  1030.1  0.7  766  303           
21 03.10.17 080 (В) 8000 м    ясно 
+4.2 -1.8 65 +2  1030.6  0.4  766  304           
00 04.10.17 080 (В) 8000 м    ясно 
+2.5 -1.5 75 +1  1030.9  0.3  766  306           
03 04.10.17 090 (В) 8000 м    ясно 
+1.5 -2 78 -1  1030.7  -0.3  766  307  +1.2         
06 04.10.17 100 (В) 10 км    4/0 верхняя 
[Ci fib]
+7.2 -1.3 55 +5  1030.8  0.3  766  301  +0.5         
09 04.10.17 140 (ЮВ) 5{10}  10 км    4/0 верхняя 
[Ci fib]
+13.8 -2.6 32 +13  1029.2  -1.2  765  294           
12 04.10.17 130 (ЮВ) 5{10}  10 км    3/0 верхняя 
[Ci fib]
+15.6 -4.4 25 +15  1027.3  -1.8  764  292           
15 04.10.17 120 (ЮВ) 8000 м    4/0 верхняя 
[Ci fib]
+11.4 -5.3 31 +11  1026.1  -1.3  763  296    +16       
18 04.10.17 110 (В) 8000 м    5/0 верхняя 
[Ci fib]
+8.8 -2.8 44 +7  1025.5  -0.6  762  298           
21 04.10.17 100 (В) 8000 м    6/0 средняя, верхняя 
[Ac trans|Ci fib]
+6.3 -3.8 48 +5  1024.4  -1.2  761  300           
00 05.10.17 090 (В) 8000 м    4/0 верхняя 
[Ci fib]
+4.1 -3.7 57 +4  1022.8  -1.5  760  302           
03 05.10.17 100 (В) 6000 м  дым  8/0 верхняя 
[Ci fib]
+3.5 -3.7 59 +2  1021.5  -1.3  759  302  +3.2         
06 05.10.17 170 (Ю) 7000 м  дым  6/0 средняя, верхняя 
[Ac trans|Ci fib]
+7.4 -2.5 49 +7  1020.1  -1.2  758  298  +3         
09 05.10.17 240 (ЮЗ) 6-10  10 км    5/0 средняя, верхняя 
[Ac trans|Ci fib]
+16.5 +2.1 38 +16  1018.2  -1.5  757  287           
12 05.10.17 260 (З) 3{10}  10 км    9/0 средняя, верхняя 
[Ac trans|Ci fib]
+16.9 +2.4 38 +17  1016.1  -2  755  286           
15 05.10.17 240 (ЮЗ) 8000 м    9/0 средняя, верхняя 
[Ac trans|Ci fib]
+14 +3.2 48 +14  1015.3  -0.9  755  289    +17.7       
18 05.10.17 230 (ЮЗ) 8000 м  дым  9/0 средняя 
[Ac trans]
+12.8 +5.5 61 +13  1014.2  -1.1  754  289           
21 05.10.17 200 (Ю) 8000 м  дым  9/0 средняя 
[Ac trans]
+12.3 +6.8 69 +13  1012.9  -1.3  753  289           
00 06.10.17 200 (Ю) 8000 м    9/5 500 м средняя 
[Sc|Ac trans]
+13.3 +7.4 67 +13  1012  -0.8  752  288           
03 06.10.17 190 (Ю) 8000 м    9/5 500 м средняя 
[Sc|Ac trans]
+12 +7.8 75 +11  1011  -0.9  752  289  +12         
06 06.10.17 210 (ЮЗ) 6{10}  3700 м  слаб. ливневой дождь  10/5 450 м кучево-дожд., средняя 
[Cb calv|Ac und]
+12.7 +9.5 81 +12  1011.5  0.4  752  288           
09 06.10.17 200 (Ю) 7{11}  10 км  {ливн. осадки}  9/4 900 м средняя 
[Cu med, cong|Ac trans]
+17.4 +11.5 68 +20  1011.2  -0.1  752  283           
12 06.10.17 210 (ЮЗ) 8-11{13}  10 км  {ливн. осадки}  9/3 1000 м средняя 
[Cu med, cong|Ac trans]
+19.9 +8.8 49 +20  1010.1  -1  751  281           
15 06.10.17 210 (ЮЗ) 2{13}  8000 м    9/0 средняя 
[Ac trans]
+17.9 +8.9 56 +19  1010.6  0.5  751  283    +20.3     
18 06.10.17 тихо () {13}  8000 м  в посл. час ливневой дождь  9/4 600 м кучево-дожд., средняя 
[Cb calv|Ac trans]
+14.9 +11 77 +17  1011.3  0.6  752  285           
21 06.10.17 тихо ()   8000 м  дымка  9/3 1000 м кучево-дожд., средняя 
[Cb calv|Ac trans]
+13.1 +10.3 83 +15  1011.9  0.5  752  287           
00 07.10.17 260 (З) 7000 м  дымка  9/1 1000 м кучево-дожд., средняя 
[Cb calv|Ac trans]
+13.1 +8.8 75 +14  1012.2  0.2  752  288           
03 07.10.17 тихо ()   7000 м  дымка  8/3 600 м средняя 
[Sc|Ac trans]
+11.4 +8.1 80 +11  1012.8  0.6  753  290  +11.1    0.0     
06 07.10.17 230 (ЮЗ) 6000 м  дымка  8/3 300 м средняя 
[Sc|Ac trans]
+14.5 +10.1 75 +17  1014.3  1.5  754  287           
09 07.10.17 190 (Ю) 10 км    8/3 600 м средняя 
[Sc|Ac trans]
+20.1 +11.6 58 +23  1014.1  754  281           
12 07.10.17 250 (З) 10 км    6/3 600 м верхняя 
[Cu hum|Ci fib]
+23 +8.7 40 +23  1013.3  -0.7  754  279           
15 07.10.17 050 (СВ) 7000 м  дым  5/0 средняя, верхняя 
[Ac trans|Ci fib]
+18.4 +8.9 54 +19  1013.2  -0.3  753  283    +23.2       
18 07.10.17 080 (В) 8000 м    3/0 средняя, верхняя 
[Ac trans|Ci fib]
+15 +8.7 66 +15  1013.7  0.4  754  286           
21 07.10.17 080 (В) 8000 м    ясно 
+11.6 +5.4 66 +11  1013.6  -0.3  753  290           
00 08.10.17 080 (В) 8000 м    1/0 средняя 
[Ac trans]
+10.2 +6 75 +9  1013.1  -0.4  753  292           
03 08.10.17 080 (В) 8000 м    3/0 средняя 
[Ac trans]
+9.5 +6.6 82 +8  1013  753  292  +9.5         
06 08.10.17 090 (В) 8-10{10}  3600 м  в посл. час туман  8/5 60 м средняя 
[St|Ac trans]
+11 +10 94 +10  1013.3  0.1  753  290  +9.3         
09 08.10.17 090 (В) 9-12{13}  10 км  {туман}  5/1 200 м средняя 
[St|Ac trans]
+17.7 +11.7 68 +20  1012.4  -0.6  753  283           
12 08.10.17 110 (В) 8-11{13}  10 км    4/0 средняя, верхняя 
[Ac trans|Ci fib]
+22.1 +10 46 +23  1010.9  -1.2  752  278           
15 08.10.17 100 (В) 6{12}  8000 м    4/0 средняя, верхняя 
[Ac trans|Ci fib]
+18.3 +9.9 58 +19  1010.4  -0.6  751  282    +22.2       
18 08.10.17 090 (В) 5{12}  8000 м    ясно 
+16.4 +10.2 67 +17  1010  -0.5  751  284           
21 08.10.17 090 (В) 6{10}  8000 м  дым  ясно 
+13.7 +9.2 74 +13  1009.3  -0.8  750  286           
00 09.10.17 090 (В) 5{10}  8000 м    3/0 средняя 
[Ac trans]
+11.4 +8.5 82 +10  1008.9  -0.2  750  289           
03 09.10.17 090 (В) 8000 м    4/0 средняя, верхняя 
[Ac trans|Ci fib]
+8.9 +7.4 90 +8  1009.5  0.4  750  292  +8.9         
06 09.10.17 160 (Ю) 10 км    9/4 330 м кучево-дожд., средняя 
[Cb calv|Ac trans]
+12.1 +8.5 79 +12  1010.9  1.5  752  288           
09 09.10.17 250 (З) 10 км    10/5 900 м кучево-дожд., средняя 
[Cb calv|Ac und]
+15.4 +10.2 71 +16  1012  1.1  752  285           
12 09.10.17 260 (З) 10 км    10/5 800 м кучево-дожд., средняя 
[Cb calv|Ac trans]
+15.2 +9.7 70 +16  1013.2  1.2  753  286           
15 09.10.17 230 (ЮЗ) 8000 м  слаб. ливневой дождь  8/4 600 м кучево-дожд., средняя 
[Cb calv|Ac trans]
+14 +9.2 73 +15  1014.1  0.8  754  287    +15.7  0.0     
18 09.10.17 250 (З) 8000 м  {ливн. осадки}  9/0 средняя, верхняя 
[Ac trans|Ci]
+12.6 +9.3 80 +13  1015.3  1.1  755  289           
21 09.10.17 220 (ЮЗ) 8000 м    5/3 300 м средняя 
[Sc|Ac trans]
+10.4 +7.6 83 +10  1016  0.6  755  292           
00 10.10.17 240 (ЮЗ) 4400 м  дымка  5/1 540 м средняя 
[Sc|Ac trans]
+8.2 +6.6 90 +8  1016.8  0.6  756  295           
03 10.10.17 260 (З) 8000 м  дымка  4/0 средняя 
[Ac trans]
+8.5 +7.2 92 +9  1017.4  0.6  756  294  +6.8    0.0     
06 10.10.17 320 (СЗ) 10 км    1/0 средняя 
[Ac trans]
+11.6 +7.4 75 +11  1018.7  1.4  757  291           
09 10.10.17 260 (З) 10 км    6/4 1260 м средняя, верхняя 
[Sc|Ac trans|Ci fib]
+15.5 +5.7 52 +16  1019.2  0.5  758  288           
12 10.10.17 270 (З) 10 км    6/4 1000 м средняя, верхняя 
[Sc|Ac trans|Ci fib]
+16.6 +5.2 47 +17  1018.9  -0.2  758  287           
15 10.10.17 270 (З) 8000 м    4/0 средняя, верхняя 
[Ac trans|Ci fib]
+13.5 +6.2 61 +14  1019.5  0.3  758  290    +17.3       
18 10.10.17 300 (СЗ) 8000 м  дым  3/0 верхняя 
[Ci fib]
+9 +5.5 79 +9  1020.5  0.9  759  295           
21 10.10.17 320 (СЗ) 8000 м  дым  ясно 
+9.8 +6.4 79 +10  1020.6  0.1  759  294           
00 11.10.17 070 (В) 5000 м  дымка  ясно 
+6.7 +5 89 +8  1021.1  0.3  759  298           
03 11.10.17 090 (В) 5000 м  в посл. час туман  ясно 
+4.9 +3.6 91 +6  1021.5  0.3  759  300  +4.9         
06 11.10.17 110 (В) 7000 м  дымка{туман}  4/0 средняя, верхняя 
[Ac trans|Ci fib]
+10.4 +5.4 71 +11  1022.6  1.3  760  294  +4.4         
09 11.10.17 180 (Ю) 10 км    4/1 1000 м средняя, верхняя 
[Cu hum|Ac trans|Ci fib]
+17.1 +5.3 46 +18  1022.3  -0.1  760  287           
12 11.10.17 210 (ЮЗ) 10 км    6/4 600 м средняя, верхняя 
[Cu med, cong|Ac trans|Ci fib]
+18.6 +3.4 36 +20  1021.1  -1  759  286           
15 11.10.17 360 (С) 8000 м    8/4 1000 м средняя 
[Sc|Ac trans]
+16.1 +4.5 46 +17  1021.4  0.1  759  288    +18.7       
18 11.10.17 020 (С) 8000 м    8/1 600 м средняя 
[Sc|Ac trans]
+13.7 +4.2 53 +14  1021.7  0.1  760  291           
21 11.10.17 090 (В) 8000 м    8/1 600 м средняя 
[Sc|Ac trans]
+9.1 +3.4 67 +10  1021.1  -0.6  759  295           
00 12.10.17 100 (В) 8000 м    6/0 средняя 
[Ac trans]
+10.7 +3.4 61 +12  1020.7  -0.3  759  294           
03 12.10.17 150 (ЮВ) 8000 м    8/0 средняя 
[Ac trans]
+9.4 +3.8 68 +10  1020.2  -0.5  758  295  +9.1         
06 12.10.17 300 (СЗ) 10 км    8/0 средняя, верхняя 
[Ac trans|Ci fib]
+12.2 +4.5 59 +13  1020.3  0.1  758  292  +8         
09 12.10.17 260 (З) 10 км    8/0 средняя, верхняя 
[Ac trans|Ci]
+15.2 +2.9 44 +15  1020  -0.2  758  289           
12 12.10.17 260 (З) 5{12}  10 км  слаб. ливневой дождь  9/3 2000 м кучево-дожд., средняя 
[Cb calv|Ac trans]
+14.6 +4.4 50 +14  1019.6  -0.3  758  289           
15 12.10.17 250 (З) 4900 м  слаб. ливневой дождь  10/5 600 м кучево-дожд., средняя 
[Cb calv|Ac und]
+11.7 +8.8 82 +10  1019.6  -0.1  758  291    +17.1     
18 12.10.17 260 (З) 7000 м  слаб. ливневой дождь  10/5 300 м кучево-дожд., средняя 
[Cb calv|Ac und]
+11.9 +10.3 90 +12  1019.7  758  291           
21 12.10.17 270 (З) 6000 м  дымка{ливн. осадки}  8/5 150 м средняя 
[Sc|Ac trans]
+11.9 +10.4 91 +13  1019.5  -0.1  758  291           
00 13.10.17 250 (З) 4800 м  дымка{ливн. осадки}  9/5 150 м средняя 
[St|Ac trans]
+10.8 +9.6 92 +11  1019  -0.5  758  292           
03 13.10.17 230 (ЮЗ) 5000 м  дымка  9/5 120 м средняя 
[St|Ac trans]
+11.4 +10.3 93 +13  1018.5  -0.5  757  291  +10.8       
06 13.10.17 240 (ЮЗ) 6000 м  дымка  10/6 300 м средняя 
[Sc|Ac und]
+13.3 +11.8 91 +15  1018.4  757  289           
09 13.10.17 240 (ЮЗ) 7{10}  7000 м  в посл. час ливневой дождь  10/6 270 м кучево-дожд., средняя 
[Cb calv|Ac und]
+14.3 +12.9 91 +18  1017.9  -0.5  757  287           
12 13.10.17 250 (З) 7-10{11}  10 км  {ливн. осадки, дождь}  10/6 1500 м кучево-дожд., средняя 
[Cb calv|Ac und]
+16.2 +9.8 66 +17  1016.8  -1  756  286           
15 13.10.17 230 (ЮЗ) 4{11}  8000 м  {ливн. осадки}  9/4 1500 м кучево-дожд., средняя 
[Cb calv|Ac trans]
+14.4 +9.9 74 +15  1015.9  -1  755  287    +16.4  0.4     
18 13.10.17 230 (ЮЗ) 6{11}  8000 м  {ливн. осадки}  9/1 1000 м кучево-дожд., средняя 
[Cb calv|Ac trans]
+14.5 +10.9 79 +16  1015.1  -0.8  755  287           
21 13.10.17 230 (ЮЗ) 5{10}  3300 м  слаб. ливневой дождь  10/6 180 м кучево-дожд., средняя 
[Cb calv|Ac und]
+12.8 +11.7 93 +15  1013.8  -1.2  754  288           
00 14.10.17 300 (СЗ) 1{10}  6000 м  слаб. ливневой дождь  10/5 1000 м кучево-дожд., средняя 
[Cb calv|Ac und]
+11.4 +10.1 92 +14  1012.8  -1  753  289           
03 14.10.17 260 (З) 4800 м  слаб. ливневой дождь  10/5 1500 м кучево-дожд., средняя 
[Cb calv|Ac und]
+10.3 +8.9 91 +10  1013.3  0.5  753  291  +10.3    17     
06 14.10.17 260 (З) 10 км  {ливн. осадки}  3/3 300 м 
[Sc]
+10.9 +8.3 84 +10  1013.9  0.6  754  291  +9.6         
09 14.10.17 260 (З) 5{10}  10 км    5/5 1110 м 
[Sc]
+13.4 +5.1 57 +13  1013.8  754  289           
12 14.10.17 270 (З) 6{11}  10 км  в посл. час ливневой дождь  8/5 1230 м кучево-дожд., средняя 
[Cb calv|Ac und]
+14.5 +6.1 57 +14  1013.2  -0.5  753  287           
15 14.10.17 250 (З) 8000 м    9/5 2000 м кучево-дожд., средняя 
[Cb calv|Ac trans]
+12.3 +8.1 76 +11  1013.6  0.3  754  289    +15.2  0.0     
18 14.10.17 260 (З) 4{10}  8000 м  гроза, ливневой дождь  10/6 1350 м кучево-дожд., средняя 
[Cb cap|Ac trans]
+10.7 +7.7 82 +10  1013.7  754  291           
21 14.10.17 270 (З) 8000 м  слаб. ливневой дождь{гроза}  10/5 1000 м кучево-дожд., средняя 
[Cb calv|Ac und]
+10.4 +7.5 82 +10  1013.1  -0.6  753  291           
00 15.10.17 290 (З) 8000 м  {гроза, ливн. осадки}  8/4 1500 м кучево-дожд., средняя 
[Cb calv|Ac trans]
+8.8 +6.7 87 +8  1013.3  0.1  753  293           
03 15.10.17 310 (СЗ) 8000 м    8/4 630 м кучево-дожд., средняя 
[Cb calv|Ac trans]
+7.5 +4.3 80 +7  1015  1.7  754  295  +7.5    900     
06 15.10.17 290 (З) 10 км    6/4 300 м средняя, верхняя 
[Sc|Ac trans|Ci fib]
+8.1 +4.4 77 +7  1016.2  1.1  755  295  +6.7         
09 15.10.17 290 (З) 10 км    9/5 1200 м верхняя 
[Sc|Ci fib]
+10.4 +3.8 64 +9  1015.8  -0.1  755  293           
12 15.10.17 250 (З) 7-12{13}  10 км    10/8 870 м средняя 
[Sc|Ac und]
+10.6 +3.9 63 +9  1013.3  -2.2  753  292           
15 15.10.17 230 (ЮЗ) 7-10{16}  2700 м  слаб. ливневой дождь  10/8 150 м кучево-дожд., средняя 
[Cb calv|Ac und]
+9.3 +8 92 +7  1009.8  -3.5  751  291    +11.6     
18 15.10.17 270 (З) 4{16}  5000 м  слаб. ливневой дождь  10/6 180 м кучево-дожд., средняя 
[Cb calv|Ac und]
+11.8 +10.4 91 +13  1006.4  -3.3  748  287           
21 15.10.17 290 (З) 4{13}  8000 м  в посл. час ливневой дождь  6/1 600 м кучево-дожд., средняя 
[Cb calv|Ac trans]
+10.9 +8 82 +10  1006.3  748  288           
00 16.10.17 300 (СЗ) 5{13}  8000 м  слаб. ливневой дождь  6/0 средняя 
[Ac trans]
+9.7 +5 72 +8  1007  0.6  749  290           
03 16.10.17 310 (СЗ) 6-10{12}  8000 м    6/3 600 м средняя 
[Sc|Ac trans]
+8.4 +3.8 73 +7  1009.8  2.7  751  293  +8.4       
06 16.10.17 320 (СЗ) 6-11{13}  10 км    6/1 960 м кучево-дожд., средняя 
[Cb calv|Ac trans]
+8.1 +2.6 68 +6  1013.1  3.2  753  294  +7.1         
09 16.10.17 310 (СЗ) 6-11{13}  10 км    9/5 960 м кучево-дожд., средняя 
[Cb calv|Ac trans]
+8.7 +1.8 62 +7  1014.9  1.8  754  294           
12 16.10.17 310 (СЗ) 5{13}  10 км    9/6 1170 м средняя 
[Sc|Ac trans]
+8.5 +1.1 60 +7  1016.6  1.7  756  295           
15 16.10.17 300 (СЗ) 8000 м    9/6 1140 м средняя 
[Sc|Ac trans]
+8.4 +1.5 62 +7  1018.2  1.6  757  296    +9.5       
18 16.10.17 260 (З) 8000 м    6/4 1500 м средняя 
[Sc|Ac trans]
+6.5 +1.5 70 +6  1018.7  0.3  757  298           
21 16.10.17 270 (З) 8000 м    3/0 средняя 
[Ac trans]
+6.3 +2.1 74 +6  1019.1  0.3  757  298           
00 17.10.17 270 (З) 8000 м    6/0 средняя 
[Ac trans]
+7.4 +3.1 74 +7  1019.2  0.1  758  297           
03 17.10.17 270 (З) 8000 м    8/3 1000 м средняя 
[Sc|Ac trans]
+8.2 +5 80 +8  1019.1  758  296  +5.7         
06 17.10.17 250 (З) 10 км    8/0 средняя 
[Ac trans]
+10.1 +6 76 +10  1019.3  0.1  758  293           
09 17.10.17 250 (З) 10 км    8/4 1470 м средняя, верхняя 
[Cu med, cong|Ac trans|Ci fib]
+14.4 +7.3 62 +14  1018.3  -0.6  757  289           
12 17.10.17 270 (З) 4{11}  10 км    10/5 800 м кучево-дожд., средняя 
[Cb calv|Ac und]
+13.7 +9 73 +13  1017.4  -0.8  756  289           
15 17.10.17 270 (З) 8000 м  в посл. час дождь  9/6 1470 м средняя 
[Sc|Ac trans]
+13.2 +9.3 77 +13  1018.4  0.9  757  289    +14.5       
18 17.10.17 270 (З) 5000 м  местами туман поземный{дождь}  6/3 1500 м средняя 
[Sc|Ac trans]
+10.5 +8.4 87 +12  1020.4  1.8  758  293           
21 17.10.17 290 (З) 7000 м  дымка  9/4 1500 м средняя 
[Sc|Ac trans]
+12.2 +9.5 84 +13  1021.1  0.7  759  291           
00 18.10.17 310 (СЗ) 6000 м  дымка  6/1 1470 м средняя 
[Sc|Ac trans]
+10.7 +8.8 88 +11  1022  0.8  760  293           
03 18.10.17 тихо ()   0300 м  туман  ?/?  
+8 +6.7 91 +8  1023.1  760  297  +7.8         
06 18.10.17 тихо ()   4700 м  дымка{туман}  5/0 средняя, верхняя 
[Ac trans|Ci fib]
+11.1 +10.2 94 +12  1024.2  1.1  761  293  +7.1         
09 18.10.17 220 (ЮЗ) 10 км    8/0 верхняя 
[Ci fib]
+14.5 +9.7 73 +16  1023.6  -0.4  761  289           
12 18.10.17 230 (ЮЗ) 10 км    9/0 верхняя 
[Ci]
+15.9 +8.8 63 +16  1022.6  -0.9  760  288           
15 18.10.17 250 (З) 5000 м  дымка  9/0 средняя, верхняя 
[Ac trans|Ci fib]
+12.2 +9.2 82 +13  1022.3  -0.4  760  292    +16       
18 18.10.17 300 (СЗ) 4400 м  дымка  4/0 средняя 
[Ac trans]
+10 +8.6 91 +10  1022.3  -0.1  760  294           
21 18.10.17 270 (З) 3500 м  местами туман поземный  1/0 средняя 
[Ac trans]
+9.4 +8.2 92 +10  1021.3  -1  759  294           
00 19.10.17 260 (З) 3200 м  дымка{туман}  6/4 360 м средняя 
[Sc|Ac trans]
+9.6 +8.5 93 +9  1021.1  -0.1  759  294           
03 19.10.17 260 (З) 0700 м  туман  ?/?  
+12.7 +11.6 93 +15  1020.7  -0.3  759  290  +8.9         
06 19.10.17 240 (ЮЗ) 8000 м  в посл. час туман  9/5 240 м средняя 
[Sc|Ac trans]
+13.2 +12.4 95 +17  1020.7  759  289           
09 19.10.17 250 (З) 10 км    9/5 800 м средняя 
[Sc|Ac trans]
+15.8 +12.1 79 +19  1019.8  -0.6  758  286           
12 19.10.17 250 (З) 5{10}  10 км    8/5 700 м средняя 
[Sc|Ac trans]
+16.7 +12 74 +21  1018.9  -0.7  758  285           
15 19.10.17 270 (З) 3000 м  дымка  8/8 100 м 
[St]
+13.4 +11.9 91 +17  1018.9  -0.1  758  289    +17       
18 19.10.17 260 (З) 6-10{10}  5000 м  дымка  9/5 240 м средняя 
[Frnb|Ac trans]
+13.7 +11.6 87 +16  1018.7  -0.1  757  288           
21 19.10.17 260 (З) 3{10}  3500 м  дымка  10/10 120 м 
[St]
+12.5 +11 91 +14  1018.5  -0.3  757  290           
00 20.10.17 250 (З) 2{10}  0200 м  туман  ?/?  
+11.6 +10.7 94 +14  1018.2  -0.3  757  291           
03 20.10.17 290 (З) 0600 м  слаб. морось{туман}  ?/?  
+10.9 +10.1 95 +12  1018.6  0.4  757  292  +10.8    0.0     
06 20.10.17 220 (ЮЗ) 0100 м  туман{морось}  ?/?  
+11.4 +10.6 95 +14  1019.1  0.5  758  291           
09 20.10.17 250 (З) 2800 м  слаб. морось{туман}  10/10 150 м 
[St]
+12.4 +11.7 95 +16  1019.1  758  290           
12 20.10.17 290 (З) 4300 м  дымка{морось, туман}  10/10 270 м 
[St]
+12.5 +10.8 89 +15  1018.9  -0.2  757  290           
15 20.10.17 340 (С) 1500 м  слаб. морось  10/10 120 м 
[St]
+12.2 +10.7 91 +15  1019.2  0.3  758  290    +12.8  0.0     
18 20.10.17 220 (ЮЗ) 1500 м  дымка{морось}  10/10 100 м 
[St]
+11.9 +10.8 93 +14  1019.2  758  291           
21 20.10.17 220 (ЮЗ) 2100 м  дымка  10/10 210 м 
[St]
+11.8 +10.7 93 +14  1018.4  -0.8  757  290           
00 21.10.17 300 (СЗ) 4100 м  дымка  10/6 300 м средняя 
[Sc|Ac trans]
+12.1 +10.6 91 +14  1017.9  -0.4  757  290           
03 21.10.17 230 (ЮЗ) 2700 м  дымка  10/8 240 м 
[Sc]
+11.5 +10.3 92 +14  1017.5  -0.4  756  291  +11.5         
06 21.10.17 230 (ЮЗ) 3000 м  слаб. дождь  10/8 240 м средняя 
[Sc|Ac und]
+12.1 +10.8 92 +15  1017.4  -0.1  756  290  +11.4         
09 21.10.17 080 (В) 0800 м  туман{дождь}  ?/?  
+10.2 +9.3 94 +10  1017.3  756  292           
12 21.10.17 080 (В) 5000 м  дымка{дождь, туман}  10/10 100 м 
[St]
+10.8 +9.6 92 +11  1015.9  -1.4  755  291           
15 21.10.17 090 (В) 2400 м  дымка  10/8 60 м средняя 
[Sc|Ac und]
+9.9 +8.9 93 +9  1015.5  -0.3  755  292    +12.2  0.0     
18 21.10.17 090 (В) 2400 м  в посл. час туман  10/10 100 м 
[St]
+9.6 +8.7 94 +9  1015  -0.5  755  292           
21 21.10.17 080 (В) 0200 м  туман  ?/?  
+9.3 +8.5 95 +9  1013.6  -1.3  753  292           
00 22.10.17 060 (СВ) 0200 м  туман{дождь}  ?/?  
+8.7 +8 95 +9  1012  -1.6  752  292           
03 22.10.17 110 (В) 0100 м  туман  ?/?  
+8.5 +7.9 96 +10  1011.1  -0.8  752  292  +8.5    0.0     
06 22.10.17 070 (В) 0300 м  слаб. дождь{туман}  ?/?  
+9.2 +8.7 97 +9  1011  -0.1  752  291           
09 22.10.17 070 (В) 4400 м  слаб. ливневой дождь  10/6 60 м кучево-дожд., средняя 
[Cb calv|Ac und]
+8.9 +8.4 97 +8  1010.5  -0.5  751  292           
12 22.10.17 050 (СВ) 6000 м  слаб. ливневой дождь  10/8 240 м кучево-дожд., средняя 
[Cb calv|Ac und]
+7.9 +7.2 95 +6  1010.9  0.3  751  293           
15 22.10.17 050 (СВ) 5{10}  8000 м  дым{ливн. осадки}  10/5 330 м кучево-дожд., средняя 
[Cb calv|Ac und]
+7 +5.6 91 +5  1013  753  295    +9.5     
18 22.10.17 020 (С) 4{10}  8000 м  дым{ливн. осадки}  9/5 330 м средняя 
[Sc|Ac trans]
+6.6 +4.6 87 +5  1015.5  2.4  755  296           
21 22.10.17 020 (С) 8000 м    9/5 1000 м средняя 
[Sc|Ac trans]
+5.9 +3.9 87 +4  1017.4  1.9  756  298           
00 23.10.17 010 (С) 8000 м    8/5 300 м средняя 
[Sc|Ac trans]
+4.6 +2.6 87 +3  1019  1.4  757  300           
03 23.10.17 050 (СВ) 6000 м  дымка  5/3 200 м средняя 
[Frnb|Ac trans]
+1.9 +0.5 90 1020.9  1.8  759  303  +1.9         
06 23.10.17 070 (В) 7000 м  дымка  4/3 200 м средняя 
[St|Ac trans]
+3.8 +1.4 84 +2  1021.9  1.1  759  302  +1.2         
09 23.10.17 100 (В) 10 км    6/6 300 м 
[Sc]
+5.9 +1.2 72 +4  1022.2  0.3  760  299           
12 23.10.17 080 (В) 10 км    8/3 600 м средняя, верхняя 
[Sc|Ac trans|Ci fib]
+6 +1.1 71 +4  1021.5  -0.7  759  299           
15 23.10.17 070 (В) 8000 м    8/0 средняя, верхняя 
[Ac trans|Ci fib]
+3.3 +0.9 84 +2  1021.4  -0.1  759  302    +6.6       
18 23.10.17 090 (В) 7-10  8000 м    5/1 1000 м средняя 
[Sc|Ac trans]
+4.2 +0.1 75 +1  1020.5  -0.9  758  301           
21 23.10.17 080 (В) 5{10}  8000 м    5/1 1000 м средняя 
[Sc|Ac trans]
+2.8 +0.4 84 1020.6  758  302           
00 24.10.17 080 (В) 6{10}  8000 м    6/3 500 м средняя 
[Sc|Ac trans]
+2.3 +0.6 88 -1  1020.4  -0.1  758  303           
03 24.10.17 080 (В) 7{11}  8000 м    8/3 1000 м средняя, верхняя 
[Sc|Ac trans|Ci fib]
+1.7 +0.3 90 -2  1020.2  -0.2  758  304  +1.5         
06 24.10.17 080 (В) 7-11{12}  10 км    9/5 240 м средняя 
[St|Ac trans]
+3.4 +1.5 87 1020.9  0.8  759  302           
09 24.10.17 080 (В) 8-10{12}  10 км    10/8 270 м средняя 
[St|Ac und]
+5.1 +3 86 +2  1020.8  -0.1  759  300           
12 24.10.17 080 (В) 8-11{12}  8000 м  дымка{морось}  10/10 330 м 
[St]
+6.1 +3.6 84 +3  1020.7  759  298           
15 24.10.17 070 (В) 9-12{12}  8000 м    10/8 660 м средняя 
[Sc|Ac und]
+6.4 +3.5 82 +3  1020.9  0.1  759  298    +6.5  0.0     
18 24.10.17 080 (В) 8-11{12}  8000 м    10/8 570 м средняя 
[Sc|Ac und]
+7.6 +3.3 74 +5  1020.5  -0.3  758  297           
21 24.10.17 090 (В) 10-14{14}  8000 м    10/8 450 м средняя 
[Sc|Ac und]
+7.8 +3.6 75 +5  1019.9  -0.5  758  296           
00 25.10.17 100 (В) 11-15{15}  8000 м    10/8 360 м средняя 
[Sc|Ac und]
+6.6 +4 83 +3  1019.8  -0.2  758  298           
03 25.10.17 080 (В) 8-12{15}  2900 м  слаб. переохл. морось (гололёд){дождь}  10/10 120 м 
[St]
+5.8 +4.5 91 +3  1019.3  -0.3  758  298  +5.8    0.0     
06 25.10.17 080 (В) 8-11{15}  1800 м  слаб. морось{дождь}  10/10 100 м 
[St]
+5.6 +4.7 94 +3  1020.2  0.9  758  299  +5.5         
09 25.10.17 070 (В) 7-12{13}  2100 м  слаб. морось  10/10 100 м 
[St]
+5.5 +4.7 95 +3  1021  0.8  759  299           
12 25.10.17 070 (В) 7-10{15}  5000 м  слаб. морось  10/10 180 м 
[St]
+4.8 +3.8 93 +2  1021.3  0.1  759  300           
15 25.10.17 050 (СВ) 9-13{13}  3900 м  слаб. морось{дождь}  10/10 210 м 
[St]
+3.6 +2.5 92 1022.6  1.2  760  302    +5.8  0.4     
18 25.10.17 060 (СВ) 7-11{13}  7000 м  дымка{дождь, морось}  10/10 300 м 
[St]
+2.6 +1.1 90 -1  1023.7  761  303           
21 25.10.17 040 (СВ) 6{11}  8000 м  дымка  10/8 840 м средняя 
[Sc|Ac und]
+2.3 +0.5 88 -1  1023.9  0.2  761  304           
00 26.10.17 040 (СВ) 6{11}  8000 м  дымка  10/10 240 м 
[St]
+1.9 +0.3 89 -1  1024.1  0.1  761  304           
03 26.10.17 050 (СВ) 5{10}  7000 м  дымка  10/10 270 м 
[Sc]
+1.9 +0.4 90 -1  1024.1  761  304  +1.6    0.0     
06 26.10.17 080 (В) 6{10}  10 км    10/10 300 м 
[Sc]
+2.2 +0.1 86 -1  1024.8  0.8  762  304           
09 26.10.17 080 (В) 10 км    10/8 420 м средняя 
[Sc|Ac und]
+3 -0.2 79 +1  1023.2  -1.6  760  303           
12 26.10.17 080 (В) 10 км    10/6 360 м средняя 
[St|Ac und]
+3.1 +0.5 83 +1  1021.7  -1.4  759  302           
15 26.10.17 100 (В) 8000 м    10/6 360 м средняя 
[St|Ac und]
+3.1 +0.8 85 +3  1020.8  -0.8  759  302    +3.4       
18 26.10.17 080 (В) 8000 м    10/8 450 м средняя 
[Sc|Ac und]
+3.1 +0.9 85 +3  1020.3  -0.6  758  302           
21 26.10.17 190 (Ю) 7000 м  в посл. час ливневой дождь  10/5 400 м кучево-дожд., средняя 
[Cb calv|Ac und]
+2.9 +1.6 91 +2  1019  -1.1  757  302           
00 27.10.17 220 (ЮЗ) 1700 м  слаб. морось{ливн. осадки, дождь}  10/10 120 м 
[St]
+3.6 +2.6 93 +2  1018.3  -0.7  757  301           
03 27.10.17 230 (ЮЗ) 0900 м  слаб. морось  10/10 60 м 
[St]
+4.7 +4 95 +3  1017  -1.1  756  299  +2.6    0.3     
06 27.10.17 220 (ЮЗ) 1100 м  в посл. час туман{морось}  10/10 60 м 
[St]
+6.1 +5.4 95 +4  1016.3  -0.6  755  297           
09 27.10.17 250 (З) 4700 м  дымка{морось, туман}  10/10 360 м 
[Sc]
+9.1 +8.2 94 +8  1015.1  -1  755  293           
12 27.10.17 250 (З) 7-10{11}  6000 м  дымка{морось, туман}  10/8 720 м средняя 
[Sc|Ac und]
+11.4 +8.6 83 +10  1013.9  -1  754  290           
15 27.10.17 250 (З) 6{11}  5000 м  дымка{дождь}  8/5 200 м средняя 
[Sc|Ac trans]
+10.6 +8.7 88 +9  1013.7  -0.3  754  291    +11.5  0.0     
18 27.10.17 230 (ЮЗ) 3{12}  4500 м  слаб. ливневой дождь  10/6 1500 м кучево-дожд., средняя 
[Cb calv|Ac und]
+10.1 +8.7 91 +10  1013.3  -0.3  753  291           
21 27.10.17 230 (ЮЗ) 4800 м  слаб. ливневой дождь  10/4 300 м кучево-дожд., средняя 
[Cb calv|Ac und]
+10 +8.7 92 +9  1012.8  -0.5  753  291           
00 28.10.17 230 (ЮЗ) 6000 м  дымка{ливн. осадки}  10/4 2000 м средняя 
[Sc|Ac und]
+9.9 +8.5 91 +9  1011.9  -0.7  752  291           
03 28.10.17 220 (ЮЗ) 3400 м  слаб. ливневой дождь  10/6 600 м кучево-дожд., средняя 
[Cb calv|Ac und]
+9.6 +8.5 93 +10  1011  -0.9  752  291  +9.5    0.0     
06 28.10.17 190 (Ю) 3300 м  слаб. ливневой дождь  10/8 1500 м кучево-дожд., средняя 
[Cb calv|Ac und]
+10 +8.4 90 +10  1010.9  751  291           
09 28.10.17 160 (Ю) 10 км    9/4 600 м кучево-дожд., средняя 
[Cb calv|Ac trans]
+12 +8.7 80 +12  1009.3  -1.5  750  288           
12 28.10.17 140 (ЮВ) 10 км  в посл. час ливневой дождь  10/5 1050 м кучево-дожд., средняя 
[Cb calv|Ac und]
+12.8 +9.5 80 +15  1006.9  -2.3  749  286           
15 28.10.17 100 (В) 8000 м  {ливн. осадки}  10/4 1500 м кучево-дожд., средняя 
[Cb calv|Ac und]
+11.4 +8.5 82 +11  1005.4  -1.5  747  288    +14  0.5     
18 28.10.17 150 (ЮВ) 8000 м  в посл. час ливневой дождь  9/5 1470 м кучево-дожд., средняя 
[Cb calv|Ac trans]
+12.5 +8.3 76 +12  1003  -2.3  746  286           
21 28.10.17 220 (ЮЗ) 8000 м    9/5 450 м кучево-дожд., средняя 
[Cb calv|Ac trans]
+12.6 +8.3 75 +12  1002  -0.8  745  285           
00 29.10.17 230 (ЮЗ) 4400 м  дымка{ливн. осадки}  9/5 100 м кучево-дожд., средняя 
[Cb calv|Ac trans]
+12.1 +10.9 92 +15  1001.2  -0.8  744  285           
03 29.10.17 230 (ЮЗ) 5000 м  слаб. ливневой дождь  10/6 330 м кучево-дожд., средняя 
[Cb calv|Ac und]
+12.1 +10.8 92 +14  1000.6  -0.5  744  285  +11.2       
06 29.10.17 250 (З) 4900 м  слаб. ливневой дождь  10/8 300 м кучево-дожд., средняя 
[Cb calv|Ac trans]
+11.3 +10.1 92 +12  1000.7  744  286           
09 29.10.17 260 (З) 6000 м  слаб. ливневой дождь  10/5 300 м кучево-дожд., средняя 
[Cb calv|Ac und]
+10.4 +8.2 86 +11  1000.3  -0.4  744  287           
12 29.10.17 250 (З) 10 км  {ливн. осадки}  10/5 300 м кучево-дожд., средняя 
[Cb calv|Ac und]
+10.2 +7.1 81 +9  1000.1  -0.2  743  288           
15 29.10.17 210 (ЮЗ) 4700 м  дымка  10/5 300 м кучево-дожд., средняя 
[Cb calv|Ac und]
+8.6 +6.5 87 +9  1000.1  743  289    +12.1     
18 29.10.17 210 (ЮЗ) 4300 м  дымка  8/4 200 м средняя 
[St|Ac trans]
+8.4 +7.1 92 +7  999.5  -0.5  743  289           
21 29.10.17 160 (Ю) 1300 м  в посл. час туман  9/9 60 м 
[St]
+8.5 +7.5 93 +8  999  -0.5  743  289           
00 30.10.17 160 (Ю) 0100 м  туман  ?/?  
+7.8 +6.9 94 +7  996.6  -2.3  741  289           
03 30.10.17 160 (Ю) 3200 м  дымка{туман}  10/8 1380 м средняя 
[Sc|Ac und]
+8.5 +7.7 95 +8  994.1  -2.5  739  287  +7.8         
06 30.10.17 170 (Ю) 7-10{10}  10 км  {туман}  10/5 1500 м кучево-дожд., средняя 
[Cb calv|Ac und]
+10.3 +8.8 90 +9  993.3  -0.7  738  285  +7.8         
09 30.10.17 230 (ЮЗ) 7-11{12}  5000 м  слаб. ливневой дождь  10/8 180 м кучево-дожд., средняя 
[Cb calv|Ac und]
+10.7 +9.5 92 +10  991  -2.1  737  284           
12 30.10.17 230 (ЮЗ) 6{13}  10 км  в посл. час ливневой дождь  10/6 570 м кучево-дожд., средняя 
[Cb calv|Ac und]
+9.4 +7.8 90 +8  992.3  1.3  738  286           
15 30.10.17 260 (З) 7-12{16}  10 км  {ливн. осадки}  9/5 1500 м кучево-дожд., средняя 
[Cb calv|Ac und]
+8.3 +3.3 71 +6  995.8  3.3  740  289    +11.1     
18 30.10.17 260 (З) 7-12{16}  8000 м  {ливн. осадки}  8/4 1500 м средняя 
[Sc|Ac trans]
+7 +1.3 67 +5  998.2  2.2  742  291           
21 30.10.17 260 (З) 7-11{12}  8000 м    8/4 1000 м средняя 
[Sc|Ac trans]
+7 +1.7 69 +5  999.8  1.5  743  292           
03 31.10.17 250 (З) 9-16{17}  8000 м  в посл. час ливневой дождь  9/5 600 м кучево-дожд., средняя 
[Cb calv|Ac trans]
+6 +1.4 72 +3  1001.1  0.8  744  293  +6.1    0.0     
09 31.10.17 250 (З) 12-18{19}  10 км    8/5 900 м средняя 
[Sc|Ac trans]
+7.7 +1 63 +4  1003  0.6  746  292           
15 31.10.17 260 (З) 6-10{18}  8000 м  в посл. час ливневой дождь  8/5 1500 м кучево-дожд., средняя 
[Cb calv|Ac trans]
+5.5 +0.4 70 +3  1007.2  2.1  749  296    +8.2  0.0     
18 31.10.17 260 (З) 7-12{18}  8000 м  {ливн. осадки}  8/4 1500 м кучево-дожд., средняя 
[Cb calv|Ac trans]
+5.7 -1.6 59 +3  1008.7  1.5  750  296           
21 31.10.17 260 (З) 8-13{15}  8000 м    8/5 2000 м кучево-дожд., средняя 
[Cb calv|Ac trans]
+5 -1.3 64 +2  1009.7  0.7  750  297           
00 01.11.17 270 (З) 7-11{15}  8000 м    9/5 2000 м кучево-дожд., средняя 
[Cb calv|Ac trans]
+4.2 -0.9 69 +1  1010.6  0.9  751  298           
03 01.11.17 260 (З) 6-10{13}  8000 м    8/4 1000 м кучево-дожд., средняя 
[Cb calv|Ac trans]
+3.7 -0.9 72 +1  1011.3  0.7  752  299  +3.6    0.0     
06 01.11.17 260 (З) 7-11{13}  10 км    9/5 1000 м кучево-дожд., средняя 
[Cb calv|Ac trans]
+4.9 -0.4 69 +2  1013  1.6  753  298           
09 01.11.17 260 (З) 7-11{16}  10 км    8/4 600 м кучево-дожд., средняя 
[Cb calv|Ac trans]
+5.7 -1.3 61 +3  1013.2  0.3  753  297           
12 01.11.17 280 (З) 5{16}  10 км  слаб. ливневой дождь  9/5 700 м кучево-дожд., средняя 
[Cb calv|Ac trans]
+3.7 +0 77 +1  1013.7  0.4  753  299           
Время (UTC), дата Ветер
(°,м/с) 
Видим.   Явления Облачность Т
(°С)
Тd
(°С)
f(%) Тe
(°С)
Pmin
(гПа)
dP
(гПа)
Po
(мм)
O2
(г/м3)
Тmin Tmax R s Состояние
почвы